Time,TemperatureF,DewpointF,PressureIn,WindDirection,WindDirectionDegrees,WindSpeedMPH,WindSpeedGustMPH,Humidity,HourlyPrecipIn,Conditions,Clouds,dailyrainin,SoftwareType,DateUTC
2013-04-06 00:00:00,35.1,25.3,30.19,ESE,123,0.0,0.0,67,0.00,,CLR,0.00,VWS V14.00,2013-04-06 04:00:00,
2013-04-06 00:05:00,34.9,25.1,30.19,SE,138,0.0,5.0,67,0.00,,CLR,0.00,VWS V14.00,2013-04-06 04:05:00,
2013-04-06 00:10:00,34.8,25.3,30.19,ESE,122,0.0,6.0,68,0.00,,CLR,0.00,VWS V14.00,2013-04-06 04:10:00,
2013-04-06 00:15:00,34.7,26.6,30.19,SE,134,4.0,6.0,72,0.00,,CLR,0.00,VWS V14.00,2013-04-06 04:15:00,
2013-04-06 00:20:00,34.6,25.1,30.19,SE,142,1.0,4.0,68,0.00,,CLR,0.00,VWS V14.00,2013-04-06 04:20:00,
2013-04-06 00:25:00,34.6,25.1,30.18,ESE,117,3.0,6.0,68,0.00,,CLR,0.00,VWS V14.00,2013-04-06 04:25:00,
2013-04-06 00:30:00,34.4,25.0,30.18,ESE,122,0.0,4.0,68,0.00,,CLR,0.00,VWS V14.00,2013-04-06 04:30:00,
2013-04-06 00:35:00,34.4,25.0,30.19,ESE,119,0.0,6.0,68,0.00,,CLR,0.00,VWS V14.00,2013-04-06 04:35:00,
2013-04-06 00:40:00,34.4,25.3,30.19,SE,125,2.0,2.0,69,0.00,,CLR,0.00,VWS V14.00,2013-04-06 04:40:00,
2013-04-06 00:45:00,34.4,25.3,30.19,SE,128,3.0,5.0,69,0.00,,CLR,0.00,VWS V14.00,2013-04-06 04:45:00,
2013-04-06 00:50:00,34.3,25.2,30.19,ESE,123,0.0,3.0,69,0.00,,CLR,0.00,VWS V14.00,2013-04-06 04:50:00,
2013-04-06 00:55:00,34.1,25.4,30.19,ESE,123,3.0,5.0,70,0.00,,CLR,0.00,VWS V14.00,2013-04-06 04:55:00,
2013-04-06 01:00:00,34.1,25.4,30.19,SE,128,0.0,4.0,70,0.00,,CLR,0.00,VWS V14.00,2013-04-06 05:00:00,
2013-04-06 01:05:00,34.0,25.3,30.19,ESE,119,0.0,6.0,70,0.00,,CLR,0.00,VWS V14.00,2013-04-06 05:05:00,
2013-04-06 01:10:00,33.9,25.2,30.18,ESE,117,0.0,4.0,70,0.00,,CLR,0.00,VWS V14.00,2013-04-06 05:10:00,
2013-04-06 01:15:00,33.9,25.2,30.18,SE,128,1.0,6.0,70,0.00,,CLR,0.00,VWS V14.00,2013-04-06 05:15:00,
2013-04-06 01:20:00,33.9,24.8,30.19,SE,126,0.0,5.0,69,0.00,,CLR,0.00,VWS V14.00,2013-04-06 05:20:00,
2013-04-06 01:25:00,33.8,24.7,30.19,SE,130,0.0,5.0,69,0.00,,CLR,0.00,VWS V14.00,2013-04-06 05:25:00,
2013-04-06 01:30:00,33.7,24.6,30.19,ESE,119,4.0,5.0,69,0.00,,CLR,0.00,VWS V14.00,2013-04-06 05:30:00,
2013-04-06 01:35:00,33.5,24.4,30.19,SE,142,0.0,5.0,69,0.00,,CLR,0.00,VWS V14.00,2013-04-06 05:35:00,
2013-04-06 01:40:00,33.5,24.4,30.19,ESE,122,0.0,6.0,69,0.00,,CLR,0.00,VWS V14.00,2013-04-06 05:40:00,
2013-04-06 01:45:00,33.6,24.9,30.19,ESE,123,0.0,6.0,70,0.00,,CLR,0.00,VWS V14.00,2013-04-06 05:45:00,
2013-04-06 01:50:00,33.8,25.1,30.19,SSE,151,3.0,4.0,70,0.00,,CLR,0.00,VWS V14.00,2013-04-06 05:50:00,
2013-04-06 01:55:00,33.9,24.8,30.20,SSE,150,0.0,4.0,69,0.00,,CLR,0.00,VWS V14.00,2013-04-06 05:55:00,
2013-04-06 02:00:00,34.0,24.9,30.20,SE,140,0.0,0.0,69,0.00,,BKN110,0.00,VWS V14.00,2013-04-06 06:00:00,
2013-04-06 02:05:00,34.1,25.0,30.21,SE,145,0.0,3.0,69,0.00,,BKN110,0.00,VWS V14.00,2013-04-06 06:05:00,
2013-04-06 02:10:00,34.1,25.0,30.21,SE,145,0.0,0.0,69,0.00,,BKN110,0.00,VWS V14.00,2013-04-06 06:10:00,
2013-04-06 02:15:00,34.1,25.4,30.20,SE,145,0.0,0.0,70,0.00,,BKN110,0.00,VWS V14.00,2013-04-06 06:15:00,
2013-04-06 02:20:00,34.1,25.4,30.21,SE,145,0.0,0.0,70,0.00,,BKN110,0.00,VWS V14.00,2013-04-06 06:20:00,
2013-04-06 02:25:00,34.1,25.4,30.21,SE,145,1.0,3.0,70,0.00,,BKN110,0.00,VWS V14.00,2013-04-06 06:25:00,
2013-04-06 02:30:00,34.2,25.5,30.21,SE,145,0.0,0.0,70,0.00,,BKN110,0.00,VWS V14.00,2013-04-06 06:30:00,
2013-04-06 02:35:00,34.2,25.5,30.21,SE,132,0.0,3.0,70,0.00,,BKN110,0.00,VWS V14.00,2013-04-06 06:35:00,
2013-04-06 02:40:00,34.3,25.5,30.21,SE,132,0.0,1.0,70,0.00,,BKN110,0.00,VWS V14.00,2013-04-06 06:40:00,
2013-04-06 02:45:00,34.3,25.2,30.21,SE,134,0.0,5.0,69,0.00,,BKN110,0.00,VWS V14.00,2013-04-06 06:45:00,
2013-04-06 02:50:00,34.3,24.9,30.20,ESE,122,2.0,3.0,68,0.00,,BKN110,0.00,VWS V14.00,2013-04-06 06:50:00,
2013-04-06 02:55:00,34.3,24.9,30.20,SE,125,0.0,5.0,68,0.00,,BKN110,0.00,VWS V14.00,2013-04-06 06:55:00,
2013-04-06 03:00:00,34.3,24.9,30.21,ESE,120,0.0,0.0,68,0.00,,OVC100,0.00,VWS V14.00,2013-04-06 07:00:00,
2013-04-06 03:05:00,34.2,24.4,30.20,ESE,122,0.0,5.0,67,0.00,,OVC100,0.00,VWS V14.00,2013-04-06 07:05:00,
2013-04-06 03:10:00,34.2,24.0,30.19,SE,137,0.0,4.0,66,0.00,,OVC100,0.00,VWS V14.00,2013-04-06 07:10:00,
2013-04-06 03:15:00,34.2,24.0,30.20,SE,136,0.0,4.0,66,0.00,,OVC100,0.00,VWS V14.00,2013-04-06 07:15:00,
2013-04-06 03:20:00,34.2,23.7,30.20,SE,128,0.0,1.0,65,0.00,,OVC100,0.00,VWS V14.00,2013-04-06 07:20:00,
2013-04-06 03:25:00,34.2,22.9,30.21,SE,130,1.0,6.0,63,0.00,,OVC100,0.00,VWS V14.00,2013-04-06 07:25:00,
2013-04-06 03:31:00,34.3,22.6,30.20,ESE,122,0.0,1.0,62,0.00,,OVC100,0.00,VWS V14.00,2013-04-06 07:31:00,
2013-04-06 03:36:00,34.3,21.9,30.21,SE,140,0.0,6.0,60,0.00,,OVC100,0.00,VWS V14.00,2013-04-06 07:36:00,
2013-04-06 03:41:00,34.4,21.6,30.20,ESE,122,4.0,4.0,59,0.00,,OVC100,0.00,VWS V14.00,2013-04-06 07:41:00,
2013-04-06 03:46:00,34.4,20.8,30.20,ESE,119,0.0,6.0,57,0.00,,OVC100,0.00,VWS V14.00,2013-04-06 07:46:00,
2013-04-06 03:51:00,34.4,20.8,30.21,SE,130,0.0,3.0,57,0.00,,OVC100,0.00,VWS V14.00,2013-04-06 07:51:00,
2013-04-06 03:56:00,34.4,20.3,30.20,SE,126,4.0,7.0,56,0.00,,OVC100,0.00,VWS V14.00,2013-04-06 07:56:00,
2013-04-06 04:01:00,34.4,19.9,30.20,SE,129,0.0,3.0,55,0.00,,OVC095,0.00,VWS V14.00,2013-04-06 08:01:00,
2013-04-06 04:06:00,34.4,19.9,30.20,ESE,112,0.0,5.0,55,0.00,,OVC095,0.00,VWS V14.00,2013-04-06 08:06:00,
2013-04-06 04:11:00,34.4,19.9,30.21,ESE,119,0.0,4.0,55,0.00,,OVC095,0.00,VWS V14.00,2013-04-06 08:11:00,
2013-04-06 04:16:00,34.5,19.6,30.21,ESE,123,0.0,4.0,54,0.00,,OVC095,0.00,VWS V14.00,2013-04-06 08:16:00,
2013-04-06 04:21:00,34.6,19.7,30.20,SE,125,0.0,4.0,54,0.00,,OVC095,0.00,VWS V14.00,2013-04-06 08:21:00,
2013-04-06 04:26:00,34.7,19.3,30.20,ESE,111,3.0,7.0,53,0.00,,OVC095,0.00,VWS V14.00,2013-04-06 08:26:00,
2013-04-06 04:31:00,34.6,19.2,30.20,SSE,155,3.0,4.0,53,0.00,,OVC095,0.00,VWS V14.00,2013-04-06 08:31:00,
2013-04-06 04:36:00,34.6,19.2,30.20,ESE,122,0.0,6.0,53,0.00,,OVC095,0.00,VWS V14.00,2013-04-06 08:36:00,
2013-04-06 04:41:00,34.6,19.2,30.20,ESE,122,4.0,4.0,53,0.00,,OVC095,0.00,VWS V14.00,2013-04-06 08:41:00,
2013-04-06 04:46:00,34.6,18.8,30.20,ESE,118,4.0,6.0,52,0.00,,OVC095,0.00,VWS V14.00,2013-04-06 08:46:00,
2013-04-06 04:51:00,34.7,19.3,30.20,SE,135,0.0,4.0,53,0.00,,OVC095,0.00,VWS V14.00,2013-04-06 08:51:00,
2013-04-06 04:56:00,34.7,18.9,30.20,SE,132,0.0,5.0,52,0.00,,OVC095,0.00,VWS V14.00,2013-04-06 08:56:00,
2013-04-06 05:01:00,34.7,18.9,30.20,ESE,113,2.0,3.0,52,0.00,,OVC090,0.00,VWS V14.00,2013-04-06 09:01:00,
2013-04-06 05:06:00,34.7,18.9,30.20,ESE,118,0.0,4.0,52,0.00,,OVC090,0.00,VWS V14.00,2013-04-06 09:06:00,
2013-04-06 05:11:00,34.8,19.0,30.20,ESE,118,0.0,0.0,52,0.00,,OVC090,0.00,VWS V14.00,2013-04-06 09:11:00,
2013-04-06 05:15:00,34.8,19.0,30.21,ESE,118,0.0,0.0,52,0.00,,OVC090,0.00,VWS V14.00,2013-04-06 09:15:00,
2013-04-06 05:20:00,34.9,19.1,30.21,SE,132,0.0,3.0,52,0.00,,OVC090,0.00,VWS V14.00,2013-04-06 09:20:00,
2013-04-06 05:25:00,34.9,19.1,30.22,SE,131,2.0,4.0,52,0.00,,OVC090,0.00,VWS V14.00,2013-04-06 09:25:00,
2013-04-06 05:30:00,34.9,18.6,30.21,SE,129,0.0,5.0,51,0.00,,OVC090,0.00,VWS V14.00,2013-04-06 09:30:00,
2013-04-06 05:35:00,34.9,18.6,30.21,SE,130,0.0,5.0,51,0.00,,OVC090,0.00,VWS V14.00,2013-04-06 09:35:00,
2013-04-06 05:40:00,34.9,18.6,30.22,SE,131,0.0,5.0,51,0.00,,OVC090,0.00,VWS V14.00,2013-04-06 09:40:00,
2013-04-06 05:45:00,34.9,18.6,30.21,SE,128,2.0,5.0,51,0.00,,OVC090,0.00,VWS V14.00,2013-04-06 09:45:00,
2013-04-06 05:51:00,34.8,18.5,30.21,SE,125,0.0,5.0,51,0.00,,OVC090,0.00,VWS V14.00,2013-04-06 09:51:00,
2013-04-06 05:56:00,34.8,19.0,30.21,SSE,155,5.0,5.0,52,0.00,,OVC090,0.00,VWS V14.00,2013-04-06 09:56:00,
2013-04-06 06:01:00,34.8,19.0,30.21,SE,136,2.0,5.0,52,0.00,,OVC090,0.00,VWS V14.00,2013-04-06 10:01:00,
2013-04-06 06:06:00,34.8,19.0,30.22,SE,125,3.0,6.0,52,0.00,,OVC090,0.00,VWS V14.00,2013-04-06 10:06:00,
2013-04-06 06:11:00,34.8,19.0,30.22,ESE,119,0.0,5.0,52,0.00,,OVC090,0.00,VWS V14.00,2013-04-06 10:11:00,
2013-04-06 06:16:00,34.8,19.0,30.23,SSE,147,0.0,5.0,52,0.00,,OVC090,0.00,VWS V14.00,2013-04-06 10:16:00,
2013-04-06 06:21:00,34.8,19.4,30.22,ESE,114,0.0,4.0,53,0.00,,OVC090,0.00,VWS V14.00,2013-04-06 10:21:00,
2013-04-06 06:26:00,34.8,19.4,30.23,ESE,118,1.0,4.0,53,0.00,,OVC090,0.00,VWS V14.00,2013-04-06 10:26:00,
2013-04-06 06:31:00,34.8,19.4,30.22,SE,135,1.0,6.0,53,0.00,,OVC090,0.00,VWS V14.00,2013-04-06 10:31:00,
2013-04-06 06:36:00,34.8,19.4,30.22,SE,132,5.0,6.0,53,0.00,,OVC090,0.00,VWS V14.00,2013-04-06 10:36:00,
2013-04-06 06:42:00,34.7,19.3,30.22,SE,133,0.0,7.0,53,0.00,,OVC090,0.00,VWS V14.00,2013-04-06 10:42:00,
2013-04-06 06:47:00,34.7,19.3,30.22,ESE,115,0.0,7.0,53,0.00,,OVC090,0.00,VWS V14.00,2013-04-06 10:47:00,
2013-04-06 06:52:00,34.8,19.4,30.22,SE,131,0.0,5.0,53,0.00,,OVC090,0.00,VWS V14.00,2013-04-06 10:52:00,
2013-04-06 06:56:00,34.8,19.9,30.22,East,100,0.0,5.0,54,0.00,,OVC090,0.00,VWS V14.00,2013-04-06 10:56:00,
2013-04-06 07:02:00,34.8,19.4,30.23,SE,128,0.0,5.0,53,0.00,,OVC095,0.00,VWS V14.00,2013-04-06 11:02:00,
2013-04-06 07:07:00,34.8,19.0,30.23,ESE,123,4.0,5.0,52,0.00,,OVC095,0.00,VWS V14.00,2013-04-06 11:07:00,
2013-04-06 07:12:00,34.8,19.0,30.23,SE,141,3.0,7.0,52,0.00,,OVC095,0.00,VWS V14.00,2013-04-06 11:12:00,
2013-04-06 07:17:00,34.7,18.9,30.23,SSE,154,3.0,7.0,52,0.00,,OVC095,0.00,VWS V14.00,2013-04-06 11:17:00,
2013-04-06 07:22:00,34.7,18.9,30.23,ESE,114,4.0,8.0,52,0.00,,OVC095,0.00,VWS V14.00,2013-04-06 11:22:00,
2013-04-06 07:27:00,34.7,18.9,30.22,SE,126,5.0,8.0,52,0.00,,OVC095,0.00,VWS V14.00,2013-04-06 11:27:00,
2013-04-06 07:32:00,34.7,18.4,30.22,ESE,117,0.0,9.0,51,0.00,,OVC095,0.00,VWS V14.00,2013-04-06 11:32:00,
2013-04-06 07:33:00,34.7,18.9,30.22,SE,133,7.0,9.0,52,0.00,,OVC095,0.00,VWS V14.00,2013-04-06 11:33:00,
2013-04-06 07:38:00,34.7,18.9,30.22,ESE,113,0.0,11.0,52,0.00,,OVC095,0.00,VWS V14.00,2013-04-06 11:38:00,
2013-04-06 07:43:00,34.8,18.5,30.22,ESE,119,0.0,6.0,51,0.00,,OVC095,0.00,VWS V14.00,2013-04-06 11:43:00,
2013-04-06 07:48:00,34.7,18.4,30.23,SE,133,2.0,11.0,51,0.00,,OVC095,0.00,VWS V14.00,2013-04-06 11:48:00,
2013-04-06 07:53:00,34.7,18.4,30.23,SSE,158,7.0,10.0,51,0.00,,OVC095,0.00,VWS V14.00,2013-04-06 11:53:00,
2013-04-06 07:58:00,34.6,18.3,30.24,ESE,120,0.0,10.0,51,0.00,,OVC095,0.00,VWS V14.00,2013-04-06 11:58:00,
2013-04-06 08:03:00,34.8,18.5,30.24,SE,132,4.0,9.0,51,0.00,,OVC100,0.00,VWS V14.00,2013-04-06 12:03:00,
2013-04-06 08:08:00,34.9,18.2,30.23,SSE,154,9.0,11.0,50,0.00,,OVC100,0.00,VWS V14.00,2013-04-06 12:08:00,
2013-04-06 08:13:00,34.8,17.1,30.23,SSE,153,5.0,11.0,48,0.00,,OVC100,0.00,VWS V14.00,2013-04-06 12:13:00,
2013-04-06 08:18:00,34.8,16.6,30.23,SE,132,3.0,12.0,47,0.00,,OVC100,0.00,VWS V14.00,2013-04-06 12:18:00,
2013-04-06 08:23:00,35.0,16.8,30.23,SE,145,7.0,7.0,47,0.00,,OVC100,0.00,VWS V14.00,2013-04-06 12:23:00,
2013-04-06 08:28:00,35.1,16.9,30.24,SE,142,6.0,9.0,47,0.00,,OVC100,0.00,VWS V14.00,2013-04-06 12:28:00,
2013-04-06 08:33:00,35.3,16.6,30.24,SE,131,5.0,12.0,46,0.00,,OVC100,0.00,VWS V14.00,2013-04-06 12:33:00,
2013-04-06 08:38:00,35.7,17.5,30.24,SE,127,5.0,12.0,47,0.00,,OVC100,0.00,VWS V14.00,2013-04-06 12:38:00,
2013-04-06 08:43:00,35.9,16.6,30.24,SE,126,2.0,8.0,45,0.00,,OVC100,0.00,VWS V14.00,2013-04-06 12:43:00,
2013-04-06 08:48:00,36.1,16.3,30.24,SE,142,0.0,8.0,44,0.00,,OVC100,0.00,VWS V14.00,2013-04-06 12:48:00,
2013-04-06 08:53:00,36.3,16.5,30.24,SE,137,6.0,6.0,44,0.00,,OVC100,0.00,VWS V14.00,2013-04-06 12:53:00,
2013-04-06 08:58:00,36.5,16.1,30.25,SE,142,0.0,10.0,43,0.00,,OVC100,0.00,VWS V14.00,2013-04-06 12:58:00,
2013-04-06 09:03:00,36.5,15.1,30.25,SE,127,0.0,10.0,41,0.00,,OVC090,0.00,VWS V14.00,2013-04-06 13:03:00,
2013-04-06 09:08:00,36.6,15.1,30.25,SE,126,4.0,11.0,41,0.00,,OVC090,0.00,VWS V14.00,2013-04-06 13:08:00,
2013-04-06 09:13:00,37.3,16.3,30.25,SE,140,4.0,11.0,42,0.00,,OVC090,0.00,VWS V14.00,2013-04-06 13:13:00,
2013-04-06 09:18:00,37.7,16.1,30.24,SE,131,7.0,11.0,41,0.00,,OVC090,0.00,VWS V14.00,2013-04-06 13:18:00,
2013-04-06 09:23:00,37.7,15.6,30.25,SSE,148,4.0,9.0,40,0.00,,OVC090,0.00,VWS V14.00,2013-04-06 13:23:00,
2013-04-06 09:28:00,37.3,14.6,30.25,SSE,150,5.0,12.0,39,0.00,,OVC090,0.00,VWS V14.00,2013-04-06 13:28:00,
2013-04-06 09:33:00,36.9,14.3,30.24,SE,130,7.0,11.0,39,0.00,,OVC090,0.00,VWS V14.00,2013-04-06 13:33:00,
2013-04-06 09:38:00,36.9,15.4,30.24,SE,129,0.0,11.0,41,0.00,,OVC090,0.00,VWS V14.00,2013-04-06 13:38:00,
2013-04-06 09:43:00,37.1,15.6,30.23,SE,132,4.0,12.0,41,0.00,,OVC090,0.00,VWS V14.00,2013-04-06 13:43:00,
2013-04-06 09:48:00,37.4,16.4,30.23,SE,126,3.0,12.0,42,0.00,,OVC090,0.00,VWS V14.00,2013-04-06 13:48:00,
2013-04-06 09:53:00,37.8,16.8,30.22,SE,139,1.0,11.0,42,0.00,,OVC090,0.00,VWS V14.00,2013-04-06 13:53:00,
2013-04-06 09:58:00,38.2,16.6,30.22,SSE,154,7.0,12.0,41,0.00,,OVC090,0.00,VWS V14.00,2013-04-06 13:58:00,
2013-04-06 10:03:00,38.4,16.8,30.22,SSE,163,2.0,9.0,41,0.00,,OVC090,0.00,VWS V14.00,2013-04-06 14:03:00,
2013-04-06 10:08:00,38.8,18.2,30.22,SSE,150,0.0,9.0,43,0.00,,OVC090,0.00,VWS V14.00,2013-04-06 14:08:00,
2013-04-06 10:13:00,39.2,17.5,30.21,SSE,148,9.0,13.0,41,0.00,,OVC090,0.00,VWS V14.00,2013-04-06 14:13:00,
2013-04-06 10:18:00,39.4,18.2,30.22,SE,130,7.0,13.0,42,0.00,,OVC090,0.00,VWS V14.00,2013-04-06 14:18:00,
2013-04-06 10:23:00,40.0,19.9,30.22,SSE,151,2.0,7.0,44,0.00,,OVC090,0.00,VWS V14.00,2013-04-06 14:23:00,
2013-04-06 10:28:00,41.1,20.9,30.21,SE,130,4.0,8.0,44,0.00,,OVC090,0.00,VWS V14.00,2013-04-06 14:28:00,
2013-04-06 10:33:00,41.6,20.2,30.21,SE,133,5.0,11.0,42,0.00,,OVC090,0.00,VWS V14.00,2013-04-06 14:33:00,
2013-04-06 10:38:00,42.1,20.1,30.21,East,86,5.0,14.0,41,0.00,,OVC090,0.00,VWS V14.00,2013-04-06 14:38:00,
2013-04-06 10:43:00,42.7,20.1,30.20,East,96,6.0,12.0,40,0.00,,OVC090,0.00,VWS V14.00,2013-04-06 14:43:00,
2013-04-06 10:48:00,42.9,20.3,30.20,SE,143,9.0,12.0,40,0.00,,OVC090,0.00,VWS V14.00,2013-04-06 14:48:00,
2013-04-06 10:53:00,43.4,21.3,30.20,SE,127,9.0,15.0,41,0.00,,OVC090,0.00,VWS V14.00,2013-04-06 14:53:00,
2013-04-06 10:58:00,43.7,21.6,30.20,SE,146,3.0,15.0,41,0.00,,OVC090,0.00,VWS V14.00,2013-04-06 14:58:00,
2013-04-06 11:03:00,43.8,21.1,30.20,South,170,7.0,12.0,40,0.00,,FEW100,0.00,VWS V14.00,2013-04-06 15:03:00,
2013-04-06 11:08:00,44.1,22.5,30.20,SE,126,8.0,12.0,42,0.00,,FEW100,0.00,VWS V14.00,2013-04-06 15:08:00,
2013-04-06 11:13:00,44.8,22.0,30.20,SE,140,6.0,13.0,40,0.00,,FEW100,0.00,VWS V14.00,2013-04-06 15:13:00,
2013-04-06 11:18:00,44.9,21.5,30.20,SE,134,5.0,14.0,39,0.00,,FEW100,0.00,VWS V14.00,2013-04-06 15:18:00,
2013-04-06 11:23:00,45.0,22.1,30.20,South,190,0.0,9.0,40,0.00,,FEW100,0.00,VWS V14.00,2013-04-06 15:23:00,
2013-04-06 11:28:00,45.4,23.1,30.19,ESE,117,5.0,10.0,41,0.00,,FEW100,0.00,VWS V14.00,2013-04-06 15:28:00,
2013-04-06 11:33:00,45.9,22.4,30.19,SSE,153,6.0,11.0,39,0.00,,FEW100,0.00,VWS V14.00,2013-04-06 15:33:00,
2013-04-06 11:38:00,46.1,21.9,30.19,SSE,153,1.0,11.0,38,0.00,,FEW100,0.00,VWS V14.00,2013-04-06 15:38:00,
2013-04-06 11:43:00,46.8,22.5,30.18,SE,138,0.0,4.0,38,0.00,,FEW100,0.00,VWS V14.00,2013-04-06 15:43:00,
2013-04-06 11:48:00,47.3,21.7,30.19,SE,140,5.0,11.0,36,0.00,,FEW100,0.00,VWS V14.00,2013-04-06 15:48:00,
2013-04-06 11:53:00,47.7,22.1,30.18,SSE,149,0.0,12.0,36,0.00,,FEW100,0.00,VWS V14.00,2013-04-06 15:53:00,
2013-04-06 11:58:00,48.2,22.5,30.18,SSE,165,9.0,12.0,36,0.00,,FEW100,0.00,VWS V14.00,2013-04-06 15:58:00,
2013-04-06 12:03:00,48.1,21.8,30.18,South,183,0.0,11.0,35,0.00,,CLR,0.00,VWS V14.00,2013-04-06 16:03:00,
2013-04-06 12:08:00,48.0,22.3,30.17,SE,141,11.0,12.0,36,0.00,,CLR,0.00,VWS V14.00,2013-04-06 16:08:00,
2013-04-06 12:13:00,48.2,23.2,30.17,South,182,3.0,12.0,37,0.00,,CLR,0.00,VWS V14.00,2013-04-06 16:13:00,
2013-04-06 12:18:00,48.6,24.2,30.17,SE,136,0.0,13.0,38,0.00,,CLR,0.00,VWS V14.00,2013-04-06 16:18:00,
2013-04-06 12:23:00,49.1,23.3,30.18,SSE,148,5.0,14.0,36,0.00,,CLR,0.00,VWS V14.00,2013-04-06 16:23:00,
2013-04-06 12:28:00,48.8,23.0,30.17,SE,130,3.0,14.0,36,0.00,,CLR,0.00,VWS V14.00,2013-04-06 16:28:00,
2013-04-06 12:33:00,48.8,23.7,30.17,SE,136,4.0,11.0,37,0.00,,CLR,0.00,VWS V14.00,2013-04-06 16:33:00,
2013-04-06 12:38:00,49.2,23.4,30.16,SSE,157,3.0,12.0,36,0.00,,CLR,0.00,VWS V14.00,2013-04-06 16:38:00,
2013-04-06 12:43:00,49.7,24.5,30.16,South,182,0.0,11.0,37,0.00,,CLR,0.00,VWS V14.00,2013-04-06 16:43:00,
2013-04-06 12:48:00,50.1,23.5,30.16,SSW,201,0.0,12.0,35,0.00,,CLR,0.00,VWS V14.00,2013-04-06 16:48:00,
2013-04-06 12:53:00,50.1,22.1,30.16,South,186,1.0,11.0,33,0.00,,CLR,0.00,VWS V14.00,2013-04-06 16:53:00,
2013-04-06 12:58:00,49.7,23.9,30.15,SE,134,6.0,11.0,36,0.00,,CLR,0.00,VWS V14.00,2013-04-06 16:58:00,
2013-04-06 13:03:00,49.7,23.2,30.15,South,182,0.0,12.0,35,0.00,,CLR,0.00,VWS V14.00,2013-04-06 17:03:00,
2013-04-06 13:08:00,49.7,21.8,30.14,SSW,206,6.0,12.0,33,0.00,,CLR,0.00,VWS V14.00,2013-04-06 17:08:00,
2013-04-06 13:13:00,49.7,23.2,30.14,SSE,147,14.0,15.0,35,0.00,,CLR,0.00,VWS V14.00,2013-04-06 17:13:00,
2013-04-06 13:18:00,50.1,24.2,30.14,SSE,167,10.0,15.0,36,0.00,,CLR,0.00,VWS V14.00,2013-04-06 17:18:00,
2013-04-06 13:23:00,50.5,21.8,30.14,SSE,150,5.0,10.0,32,0.00,,CLR,0.00,VWS V14.00,2013-04-06 17:23:00,
2013-04-06 13:28:00,50.3,22.3,30.14,SSE,160,3.0,12.0,33,0.00,,CLR,0.00,VWS V14.00,2013-04-06 17:28:00,
2013-04-06 13:33:00,50.2,22.2,30.14,SW,217,0.0,12.0,33,0.00,,CLR,0.00,VWS V14.00,2013-04-06 17:33:00,
2013-04-06 13:38:00,50.2,23.6,30.13,SE,130,5.0,12.0,35,0.00,,CLR,0.00,VWS V14.00,2013-04-06 17:38:00,
2013-04-06 13:43:00,50.5,23.2,30.13,SE,130,4.0,13.0,34,0.00,,CLR,0.00,VWS V14.00,2013-04-06 17:43:00,
2013-04-06 13:48:00,50.6,23.3,30.12,South,176,7.0,16.0,34,0.00,,CLR,0.00,VWS V14.00,2013-04-06 17:48:00,
2013-04-06 13:53:00,50.8,22.0,30.12,South,178,0.0,15.0,32,0.00,,CLR,0.00,VWS V14.00,2013-04-06 17:53:00,
2013-04-06 13:58:00,51.0,22.9,30.11,South,184,4.0,15.0,33,0.00,,CLR,0.00,VWS V14.00,2013-04-06 17:58:00,
2013-04-06 14:03:00,51.6,22.7,30.11,SSW,200,5.0,11.0,32,0.00,,CLR,0.00,VWS V14.00,2013-04-06 18:03:00,
2013-04-06 14:08:00,52.0,23.1,30.10,SE,138,1.0,11.0,32,0.00,,CLR,0.00,VWS V14.00,2013-04-06 18:08:00,
2013-04-06 14:13:00,52.4,24.2,30.10,SSE,153,0.0,9.0,33,0.00,,CLR,0.00,VWS V14.00,2013-04-06 18:13:00,
2013-04-06 14:18:00,52.6,24.3,30.10,SSW,193,0.0,13.0,33,0.00,,CLR,0.00,VWS V14.00,2013-04-06 18:18:00,
2013-04-06 14:23:00,52.9,23.1,30.09,SSW,193,1.0,11.0,31,0.00,,CLR,0.00,VWS V14.00,2013-04-06 18:23:00,
2013-04-06 14:28:00,52.9,23.1,30.09,SSE,159,0.0,11.0,31,0.00,,CLR,0.00,VWS V14.00,2013-04-06 18:28:00,
2013-04-06 14:33:00,53.0,22.4,30.08,SSE,167,1.0,10.0,30,0.00,,CLR,0.00,VWS V14.00,2013-04-06 18:33:00,
2013-04-06 14:38:00,53.4,23.5,30.08,South,171,0.0,11.0,31,0.00,,CLR,0.00,VWS V14.00,2013-04-06 18:38:00,
2013-04-06 14:43:00,53.5,22.9,30.08,South,182,0.0,14.0,30,0.00,,CLR,0.00,VWS V14.00,2013-04-06 18:43:00,
2013-04-06 14:48:00,53.3,23.5,30.08,SSE,161,0.0,14.0,31,0.00,,CLR,0.00,VWS V14.00,2013-04-06 18:48:00,
2013-04-06 14:53:00,53.3,23.5,30.07,SSE,150,0.0,14.0,31,0.00,,CLR,0.00,VWS V14.00,2013-04-06 18:53:00,
2013-04-06 14:58:00,53.3,23.5,30.06,SE,132,5.0,14.0,31,0.00,,CLR,0.00,VWS V14.00,2013-04-06 18:58:00,
2013-04-06 15:03:00,53.6,22.9,30.06,South,191,8.0,9.0,30,0.00,,FEW110,0.00,VWS V14.00,2013-04-06 19:03:00,
2013-04-06 15:08:00,53.7,23.0,30.06,SSE,155,1.0,11.0,30,0.00,,FEW110,0.00,VWS V14.00,2013-04-06 19:08:00,
2013-04-06 15:13:00,53.8,23.9,30.06,SSE,159,0.0,14.0,31,0.00,,FEW110,0.00,VWS V14.00,2013-04-06 19:13:00,
2013-04-06 15:18:00,53.8,22.3,30.06,SSW,211,2.0,14.0,29,0.00,,FEW110,0.00,VWS V14.00,2013-04-06 19:18:00,
2013-04-06 15:23:00,53.7,23.8,30.05,SSW,212,3.0,6.0,31,0.00,,FEW110,0.00,VWS V14.00,2013-04-06 19:23:00,
2013-04-06 15:28:00,53.7,23.0,30.05,SSE,148,10.0,15.0,30,0.00,,FEW110,0.00,VWS V14.00,2013-04-06 19:28:00,
2013-04-06 15:33:00,53.5,22.9,30.05,SSW,192,5.0,13.0,30,0.00,,FEW110,0.00,VWS V14.00,2013-04-06 19:33:00,
2013-04-06 15:38:00,53.5,23.6,30.04,SSE,157,3.0,13.0,31,0.00,,FEW110,0.00,VWS V14.00,2013-04-06 19:38:00,
2013-04-06 15:43:00,53.7,24.6,30.03,SE,134,10.0,11.0,32,0.00,,FEW110,0.00,VWS V14.00,2013-04-06 19:43:00,
2013-04-06 15:48:00,53.8,23.1,30.03,SSW,199,4.0,12.0,30,0.00,,FEW110,0.00,VWS V14.00,2013-04-06 19:48:00,
2013-04-06 15:53:00,53.8,23.1,30.03,SSW,194,5.0,10.0,30,0.00,,FEW110,0.00,VWS V14.00,2013-04-06 19:53:00,
2013-04-06 15:58:00,54.0,24.1,30.02,South,174,1.0,10.0,31,0.00,,FEW110,0.00,VWS V14.00,2013-04-06 19:58:00,
2013-04-06 16:03:00,54.2,25.0,30.02,SSE,149,5.0,10.0,32,0.00,,BKN110,0.00,VWS V14.00,2013-04-06 20:03:00,
2013-04-06 16:08:00,54.4,23.6,30.01,South,173,1.0,10.0,30,0.00,,BKN110,0.00,VWS V14.00,2013-04-06 20:08:00,
2013-04-06 16:13:00,54.7,23.9,30.01,SSE,155,5.0,13.0,30,0.00,,BKN110,0.00,VWS V14.00,2013-04-06 20:13:00,
2013-04-06 16:18:00,54.9,24.1,30.00,South,184,4.0,16.0,30,0.00,,BKN110,0.00,VWS V14.00,2013-04-06 20:18:00,
2013-04-06 16:23:00,55.2,25.1,29.99,SSE,160,1.0,7.0,31,0.00,,BKN110,0.00,VWS V14.00,2013-04-06 20:23:00,
2013-04-06 16:28:00,55.5,24.6,29.99,South,173,0.0,16.0,30,0.00,,BKN110,0.00,VWS V14.00,2013-04-06 20:28:00,
2013-04-06 16:33:00,55.9,24.9,29.99,South,186,0.0,11.0,30,0.00,,BKN110,0.00,VWS V14.00,2013-04-06 20:33:00,
2013-04-06 16:38:00,56.2,25.2,29.98,SE,136,0.0,11.0,30,0.00,,BKN110,0.00,VWS V14.00,2013-04-06 20:38:00,
2013-04-06 16:43:00,55.8,24.0,29.98,SSE,161,6.0,14.0,29,0.00,,BKN110,0.00,VWS V14.00,2013-04-06 20:43:00,
2013-04-06 16:48:00,55.5,23.8,29.97,SE,138,4.0,14.0,29,0.00,,BKN110,0.00,VWS V14.00,2013-04-06 20:48:00,
2013-04-06 16:53:00,55.6,23.9,29.97,SSW,192,0.0,10.0,29,0.00,,BKN110,0.00,VWS V14.00,2013-04-06 20:53:00,
2013-04-06 16:58:00,55.9,25.7,29.97,SE,138,4.0,12.0,31,0.00,,BKN110,0.00,VWS V14.00,2013-04-06 20:58:00,
2013-04-06 17:03:00,55.9,25.7,29.96,South,184,0.0,11.0,31,0.00,,CLR,0.00,VWS V14.00,2013-04-06 21:03:00,
2013-04-06 17:08:00,56.0,25.0,29.96,SE,145,4.0,12.0,30,0.00,,CLR,0.00,VWS V14.00,2013-04-06 21:08:00,
2013-04-06 17:13:00,55.9,25.7,29.96,SE,146,0.0,11.0,31,0.00,,CLR,0.00,VWS V14.00,2013-04-06 21:13:00,
2013-04-06 17:18:00,56.2,26.0,29.96,ESE,113,11.0,13.0,31,0.00,,CLR,0.00,VWS V14.00,2013-04-06 21:18:00,
2013-04-06 17:23:00,55.9,25.7,29.95,SE,145,4.0,16.0,31,0.00,,CLR,0.00,VWS V14.00,2013-04-06 21:23:00,
2013-04-06 17:28:00,56.0,26.6,29.95,SE,137,5.0,16.0,32,0.00,,CLR,0.00,VWS V14.00,2013-04-06 21:28:00,
2013-04-06 17:33:00,56.6,26.3,29.95,South,173,2.0,12.0,31,0.00,,CLR,0.00,VWS V14.00,2013-04-06 21:33:00,
2013-04-06 17:38:00,56.9,27.4,29.94,SSE,157,1.0,12.0,32,0.00,,CLR,0.00,VWS V14.00,2013-04-06 21:38:00,
2013-04-06 17:43:00,57.0,26.7,29.94,SSE,157,15.0,15.0,31,0.00,,CLR,0.00,VWS V14.00,2013-04-06 21:43:00,
2013-04-06 17:48:00,56.6,26.3,29.94,SE,146,0.0,15.0,31,0.00,,CLR,0.00,VWS V14.00,2013-04-06 21:48:00,
2013-04-06 17:53:00,56.4,26.2,29.94,SE,129,5.0,15.0,31,0.00,,CLR,0.00,VWS V14.00,2013-04-06 21:53:00,
2013-04-06 17:58:00,56.2,26.0,29.94,SSE,154,3.0,15.0,31,0.00,,CLR,0.00,VWS V14.00,2013-04-06 21:58:00,
2013-04-06 18:03:00,56.4,26.2,29.94,South,172,0.0,14.0,31,0.00,,CLR,0.00,VWS V14.00,2013-04-06 22:03:00,
2013-04-06 18:08:00,56.6,26.3,29.93,SSE,161,1.0,14.0,31,0.00,,CLR,0.00,VWS V14.00,2013-04-06 22:08:00,
2013-04-06 18:13:00,56.6,24.7,29.93,SE,144,4.0,14.0,29,0.00,,CLR,0.00,VWS V14.00,2013-04-06 22:13:00,
2013-04-06 18:18:00,56.5,26.2,29.93,SE,140,0.0,14.0,31,0.00,,CLR,0.00,VWS V14.00,2013-04-06 22:18:00,
2013-04-06 18:23:00,56.1,25.1,29.93,SSE,149,1.0,12.0,30,0.00,,CLR,0.00,VWS V14.00,2013-04-06 22:23:00,
2013-04-06 18:28:00,55.8,24.9,29.92,SSE,159,0.0,12.0,30,0.00,,CLR,0.00,VWS V14.00,2013-04-06 22:28:00,
2013-04-06 18:33:00,55.6,24.7,29.92,SSE,155,0.0,16.0,30,0.00,,CLR,0.00,VWS V14.00,2013-04-06 22:33:00,
2013-04-06 18:38:00,55.5,25.4,29.91,SE,140,3.0,16.0,31,0.00,,CLR,0.00,VWS V14.00,2013-04-06 22:38:00,
2013-04-06 18:43:00,55.5,25.4,29.91,SSE,149,5.0,11.0,31,0.00,,CLR,0.00,VWS V14.00,2013-04-06 22:43:00,
2013-04-06 18:48:00,55.5,25.4,29.92,South,171,3.0,11.0,31,0.00,,CLR,0.00,VWS V14.00,2013-04-06 22:48:00,
2013-04-06 18:53:00,55.3,24.4,29.92,SE,143,0.0,12.0,30,0.00,,CLR,0.00,VWS V14.00,2013-04-06 22:53:00,
2013-04-06 18:58:00,55.0,24.2,29.91,South,172,1.0,12.0,30,0.00,,CLR,0.00,VWS V14.00,2013-04-06 22:58:00,
2013-04-06 19:03:00,54.8,24.0,29.91,SSE,149,0.0,14.0,30,0.00,,CLR,0.00,VWS V14.00,2013-04-06 23:03:00,
2013-04-06 19:08:00,54.6,24.6,29.91,SSE,157,0.0,14.0,31,0.00,,CLR,0.00,VWS V14.00,2013-04-06 23:08:00,
2013-04-06 19:13:00,54.5,23.7,29.90,SSE,156,5.0,14.0,30,0.00,,CLR,0.00,VWS V14.00,2013-04-06 23:13:00,
2013-04-06 19:19:00,54.5,23.7,29.90,SSE,164,1.0,14.0,30,0.00,,CLR,0.00,VWS V14.00,2013-04-06 23:19:00,
2013-04-06 19:24:00,54.4,23.6,29.90,South,171,1.0,14.0,30,0.00,,CLR,0.00,VWS V14.00,2013-04-06 23:24:00,
2013-04-06 19:29:00,54.2,23.5,29.90,SE,145,5.0,14.0,30,0.00,,CLR,0.00,VWS V14.00,2013-04-06 23:29:00,
2013-04-06 19:34:00,54.0,23.3,29.90,SE,136,3.0,16.0,30,0.00,,CLR,0.00,VWS V14.00,2013-04-06 23:34:00,
2013-04-06 19:39:00,53.8,23.1,29.90,SSE,163,9.0,16.0,30,0.00,,CLR,0.00,VWS V14.00,2013-04-06 23:39:00,
2013-04-06 19:44:00,53.6,22.9,29.89,SSE,149,2.0,16.0,30,0.00,,CLR,0.00,VWS V14.00,2013-04-06 23:44:00,
2013-04-06 19:49:00,53.6,23.7,29.89,SE,143,0.0,16.0,31,0.00,,CLR,0.00,VWS V14.00,2013-04-06 23:49:00,
2013-04-06 19:54:00,53.6,22.9,29.88,SSE,150,0.0,9.0,30,0.00,,CLR,0.00,VWS V14.00,2013-04-06 23:54:00,
2013-04-06 19:59:00,53.4,22.8,29.88,SSE,159,3.0,6.0,30,0.00,,CLR,0.00,VWS V14.00,2013-04-06 23:59:00,
2013-04-06 20:04:00,53.2,23.4,29.88,SSE,165,4.0,9.0,31,0.00,,CLR,0.00,VWS V14.00,2013-04-07 00:04:00,
2013-04-06 20:09:00,53.0,23.2,29.88,SSE,150,2.0,4.0,31,0.00,,CLR,0.00,VWS V14.00,2013-04-07 00:09:00,
2013-04-06 20:14:00,53.1,24.0,29.88,SSE,154,0.0,9.0,32,0.00,,CLR,0.00,VWS V14.00,2013-04-07 00:14:00,
2013-04-06 20:19:00,53.1,24.0,29.87,South,173,0.0,1.0,32,0.00,,CLR,0.00,VWS V14.00,2013-04-07 00:19:00,
2013-04-06 20:24:00,53.1,24.0,29.88,SSE,148,0.0,7.0,32,0.00,,CLR,0.00,VWS V14.00,2013-04-07 00:24:00,
2013-04-06 20:29:00,53.0,24.0,29.88,SSE,151,4.0,4.0,32,0.00,,CLR,0.00,VWS V14.00,2013-04-07 00:29:00,
2013-04-06 20:34:00,53.0,24.7,29.88,South,172,0.0,5.0,33,0.00,,CLR,0.00,VWS V14.00,2013-04-07 00:34:00,
2013-04-06 20:39:00,53.0,24.0,29.88,SE,140,0.0,6.0,32,0.00,,CLR,0.00,VWS V14.00,2013-04-07 00:39:00,
2013-04-06 20:44:00,53.1,24.8,29.88,SE,144,0.0,9.0,33,0.00,,CLR,0.00,VWS V14.00,2013-04-07 00:44:00,
2013-04-06 20:50:00,53.2,24.1,29.87,SSE,167,0.0,0.0,32,0.00,,CLR,0.00,VWS V14.00,2013-04-07 00:50:00,
2013-04-06 20:55:00,53.1,24.8,29.88,SE,126,3.0,5.0,33,0.00,,CLR,0.00,VWS V14.00,2013-04-07 00:55:00,
2013-04-06 21:00:00,53.0,24.7,29.87,SSE,149,0.0,1.0,33,0.00,,CLR,0.00,VWS V14.00,2013-04-07 01:00:00,
2013-04-06 21:05:00,52.9,24.6,29.87,South,175,4.0,6.0,33,0.00,,CLR,0.00,VWS V14.00,2013-04-07 01:05:00,
2013-04-06 21:10:00,52.9,24.6,29.87,SSE,157,0.0,3.0,33,0.00,,CLR,0.00,VWS V14.00,2013-04-07 01:10:00,
2013-04-06 21:15:00,52.9,23.9,29.86,SSW,196,0.0,9.0,32,0.00,,CLR,0.00,VWS V14.00,2013-04-07 01:15:00,
2013-04-06 21:20:00,53.0,24.7,29.86,SSE,164,3.0,5.0,33,0.00,,CLR,0.00,VWS V14.00,2013-04-07 01:20:00,
2013-04-06 21:25:00,53.0,24.7,29.86,SSE,155,0.0,11.0,33,0.00,,CLR,0.00,VWS V14.00,2013-04-07 01:25:00,
2013-04-06 21:30:00,53.1,24.0,29.85,South,191,1.0,5.0,32,0.00,,CLR,0.00,VWS V14.00,2013-04-07 01:30:00,
2013-04-06 21:35:00,53.1,24.8,29.86,South,169,0.0,9.0,33,0.00,,CLR,0.00,VWS V14.00,2013-04-07 01:35:00,
2013-04-06 21:40:00,53.1,24.0,29.84,SSE,153,1.0,14.0,32,0.00,,CLR,0.00,VWS V14.00,2013-04-07 01:40:00,
2013-04-06 21:45:00,53.1,24.0,29.85,SSE,167,0.0,14.0,32,0.00,,CLR,0.00,VWS V14.00,2013-04-07 01:45:00,
2013-04-06 21:50:00,53.1,24.0,29.84,South,190,0.0,2.0,32,0.00,,CLR,0.00,VWS V14.00,2013-04-07 01:50:00,
2013-04-06 21:55:00,53.1,24.0,29.84,SSE,167,0.0,14.0,32,0.00,,CLR,0.00,VWS V14.00,2013-04-07 01:55:00,
2013-04-06 22:00:00,53.2,24.1,29.84,SSE,167,4.0,9.0,32,0.00,,CLR,0.00,VWS V14.00,2013-04-07 02:00:00,
2013-04-06 22:05:00,53.3,24.2,29.83,SSE,151,0.0,16.0,32,0.00,,CLR,0.00,VWS V14.00,2013-04-07 02:05:00,
2013-04-06 22:10:00,53.3,24.2,29.83,SSE,149,4.0,7.0,32,0.00,,CLR,0.00,VWS V14.00,2013-04-07 02:10:00,
2013-04-06 22:15:00,53.4,24.3,29.83,SSE,159,0.0,17.0,32,0.00,,CLR,0.00,VWS V14.00,2013-04-07 02:15:00,
2013-04-06 22:20:00,53.3,24.2,29.83,South,176,0.0,4.0,32,0.00,,CLR,0.00,VWS V14.00,2013-04-07 02:20:00,
2013-04-06 22:25:00,53.3,24.2,29.82,South,172,1.0,12.0,32,0.00,,CLR,0.00,VWS V14.00,2013-04-07 02:25:00,
2013-04-06 22:30:00,53.3,24.2,29.82,South,174,0.0,7.0,32,0.00,,CLR,0.00,VWS V14.00,2013-04-07 02:30:00,
2013-04-06 22:35:00,53.3,25.0,29.82,SSE,163,0.0,9.0,33,0.00,,CLR,0.00,VWS V14.00,2013-04-07 02:35:00,
2013-04-06 22:40:00,53.5,25.1,29.82,SSE,155,5.0,7.0,33,0.00,,CLR,0.00,VWS V14.00,2013-04-07 02:40:00,
2013-04-06 22:45:00,53.5,25.1,29.81,SSE,167,0.0,11.0,33,0.00,,CLR,0.00,VWS V14.00,2013-04-07 02:45:00,
2013-04-06 22:50:00,53.5,24.4,29.81,South,169,5.0,11.0,32,0.00,,CLR,0.00,VWS V14.00,2013-04-07 02:50:00,
2013-04-06 22:55:00,53.7,24.6,29.81,South,175,0.0,18.0,32,0.00,,CLR,0.00,VWS V14.00,2013-04-07 02:55:00,
2013-04-06 23:00:00,53.8,23.9,29.80,SSE,152,0.0,3.0,31,0.00,,CLR,0.00,VWS V14.00,2013-04-07 03:00:00,
2013-04-06 23:05:00,53.9,24.7,29.80,South,178,4.0,12.0,32,0.00,,CLR,0.00,VWS V14.00,2013-04-07 03:05:00,
2013-04-06 23:10:00,54.0,24.8,29.80,SSE,161,3.0,9.0,32,0.00,,CLR,0.00,VWS V14.00,2013-04-07 03:10:00,
2013-04-06 23:15:00,54.1,24.2,29.79,SSE,162,1.0,12.0,31,0.00,,CLR,0.00,VWS V14.00,2013-04-07 03:15:00,
2013-04-06 23:20:00,54.2,25.0,29.80,SSE,165,2.0,8.0,32,0.00,,CLR,0.00,VWS V14.00,2013-04-07 03:20:00,
2013-04-06 23:25:00,54.2,25.0,29.79,SSE,167,0.0,12.0,32,0.00,,CLR,0.00,VWS V14.00,2013-04-07 03:25:00,
2013-04-06 23:30:00,54.2,25.0,29.79,South,182,6.0,13.0,32,0.00,,CLR,0.00,VWS V14.00,2013-04-07 03:30:00,
2013-04-06 23:35:00,54.4,25.2,29.79,SSE,148,6.0,13.0,32,0.00,,CLR,0.00,VWS V14.00,2013-04-07 03:35:00,
2013-04-06 23:40:00,54.5,24.5,29.78,SSE,148,0.0,5.0,31,0.00,,CLR,0.00,VWS V14.00,2013-04-07 03:40:00,
2013-04-06 23:45:00,54.5,25.3,29.77,ESE,119,2.0,13.0,32,0.00,,CLR,0.00,VWS V14.00,2013-04-07 03:45:00,
2013-04-06 23:50:00,54.7,25.4,29.78,South,179,0.0,12.0,32,0.00,,CLR,0.00,VWS V14.00,2013-04-07 03:50:00,
2013-04-06 23:55:00,55.0,25.7,29.78,SW,217,0.0,12.0,32,0.00,,CLR,0.00,VWS V14.00,2013-04-07 03:55:00,